Location: Orange Harbor Mobile Home Park
(26.6923°N, 81.7937°W)
Time: 08:28:03
(UTC+00:00)

USA 32 - Pass Details

Date: 19 September 2020
Orbit: 778 x 782 km, 85.0° (Epoch: 27 September)

Event Time Altitude Azimuth Distance (km) Brightness Sun altitude
Rises 10:05:27 0° 355° (N) 3,265 7.3 -16.2°
Reaches altitude 10° 10:07:48 10° 353° (N) 2,335 6.5 -15.7°
Maximum altitude 10:13:02 76° 269° (W) 806 3.9 -14.5°
Drops below altitude 10° 10:18:15 10° 184° (S) 2,327 6.4 -13.4°
Sets 10:20:35 0° 182° (S) 3,252 7.1 -12.9°
